sat.trackr.live / text

‹ back to catalog

STARLINK-5169

NORAD 54060 · 2022-136K

PAYLOAD ACTIVE UNKNOWN

§ Identity

Operator
Country
US
Launch date
2022-10-20
Launch site
AFETR
Launch vehicle
Mass (kg)
RCS (m²)

Purposes: comms

External: N2YO · Heavens-Above · Gunter

§ Orbital elements

Epoch: 2026-09-20T04:44:50.612064Z

Period
95.44 min
Inclination
53.1599°
Eccentricity
0.0001438
Mean motion
15.08818177 rev/d
Perigee alt
538.8 km
Apogee alt
540.8 km
Semi-major
6,917.9 km
B*
1.2656e-4
RAAN
159.9365°
Arg perigee
79.4429°
Mean anomaly
280.6725°
Rev number
21,663

§ Raw data

STARLINK-51691 54060U 22136K   26263.19780801  .00001726  00000+0  12656-3 0  99902 54060  53.1599 159.9365 0001438  79.4429 280.6725 15.08818177216632

JSON: /api/v1/satellites/54060 · /tle

For live sub-satellite position, see the globe view (requires WebGL).

§ Visibility from observer

Set your observer location to see the next 7 days of passes ≥ 10°. The values pass through the URL so the page stays shareable.

No JS? Fill the form by hand. The geolocation button needs JavaScript.